Weather History for KLOT - June, 2013

Change the Weather History Date:

Saturday, June 29, 2013

  Actual Average Record
Temperature  
Mean Temperature 68 °F 73 °F  
Max Temperature 72 °F 84 °F 95 °F (1996)
Min Temperature 64 °F 63 °F 54 °F (2004)
Degree Days  
Heating Degree Days 0 0  
Month to date heating degree days 35 31  
Since 1 June heating degree days 35 31  
Since 1 July heating degree days 6171 6217  
Cooling Degree Days 3 8  
Month to date cooling degree days 160 169  
Year to date cooling degree days 263 227  
Since 1 June cooling degree days 160 169  
Growing Degree Days 16 (Base 50)    
Moisture  
Dew Point 60 °F    
Average Humidity 82    
Maximum Humidity 96    
Minimum Humidity 60    
Precipitation  
Precipitation 0.61 in 0.11 in 1.18 in (2012)
Month to date precipitation 4.44 4.22  
Year to date precipitation 25.43 18.92  
Sea Level Pressure  
Sea Level Pressure 29.66 in    
Wind  
Wind Speed 7 mph (NNE)    
Max Wind Speed 20 mph    
Max Gust Speed 29 mph    
Visibility 9 miles    
Events Rain , Thunderstorm    
T = Trace of Precipitation, MM = Missing Value Source: NWS Daily Summary

Daily Weather History Graph

Daily Weather History Graph

Search for Another Location

Airport or City:

Trip Planner

Search our weather history database for the weather conditions in past years. The results will help you decide how hot, cold, wet, or windy it might be!

Date:

Astronomy

Jun. 29, 2013 Rise Set
Actual Time 5:21 AM CDT 8:30 PM CDT
Civil Twilight 4:47 AM CDT 9:04 PM CDT
Nautical Twilight 4:03 AM CDT 9:48 PM CDT
Astronomical Twilight 3:11 AM CDT 10:40 PM CDT
Moon No Moon Rise 12:38 PM CDT (6/29)
Length of Visible Light 16h 17m
Length of Day
15h 09m
Waning Gibbous, 55% of the Moon is Illuminated
Jun 29
Waning Gibbous
Jun 29
Last Quarter
Jul 8
New
Jul 15
First Quarter
Jul 22
Full

Hourly Weather History & Observations

Time (CDT) Temp. Dew Point Humidity Pressure Visibility Wind Dir Wind Speed Gust Speed Precip Events Conditions
12:15 AM 65.8 °F 61.3 °F 85% 29.62 in 10.0 mi NW 4.6 mph - N/A   Clear
12:35 AM 64.6 °F 61.7 °F 90% 29.62 in 10.0 mi WNW 3.5 mph - N/A   Clear
12:55 AM 64.9 °F 61.7 °F 89% 29.61 in 10.0 mi West 3.5 mph - N/A   Clear
1:15 AM 64.4 °F 61.7 °F 91% 29.61 in 10.0 mi West 4.6 mph - N/A   Clear
1:35 AM 64.0 °F 61.9 °F 93% 29.61 in 10.0 mi WNW 5.8 mph - N/A   Scattered Clouds
1:55 AM 63.7 °F 62.1 °F 94% 29.61 in 10.0 mi WNW 5.8 mph - N/A   Scattered Clouds
2:15 AM 63.7 °F 62.2 °F 95% 29.61 in 10.0 mi WNW 5.8 mph - N/A   Scattered Clouds
2:35 AM 63.5 °F 62.2 °F 96% 29.60 in 10.0 mi NW 4.6 mph - N/A   Clear
2:55 AM 63.9 °F 62.6 °F 96% 29.61 in 10.0 mi NW 4.6 mph - N/A   Clear
3:15 AM 63.9 °F 62.6 °F 96% 29.60 in 10.0 mi NNW 4.6 mph - N/A   Mostly Cloudy
3:35 AM 64.0 °F 62.8 °F 96% 29.60 in 10.0 mi NNW 4.6 mph - N/A   Overcast
3:55 AM 64.4 °F 62.8 °F 94% 29.61 in 10.0 mi North 4.6 mph - N/A   Scattered Clouds
4:15 AM 64.0 °F 62.6 °F 95% 29.61 in 10.0 mi North 4.6 mph - N/A   Scattered Clouds
4:35 AM 63.7 °F 62.2 °F 95% 29.61 in 10.0 mi North 5.8 mph - N/A   Scattered Clouds
4:55 AM 63.5 °F 62.1 °F 95% 29.62 in 10.0 mi North 4.6 mph - N/A   Mostly Cloudy
5:15 AM 63.9 °F 62.2 °F 94% 29.62 in 10.0 mi North 4.6 mph - N/A   Overcast
5:35 AM 64.0 °F 62.2 °F 94% 29.62 in 10.0 mi North 3.5 mph - N/A   Overcast
5:55 AM 64.4 °F 62.6 °F 94% 29.63 in 10.0 mi North 3.5 mph - N/A   Overcast
6:15 AM 64.8 °F 62.2 °F 92% 29.63 in 10.0 mi North 4.6 mph - N/A   Overcast
6:35 AM 64.6 °F 62.2 °F 92% 29.63 in 10.0 mi NNW 8.1 mph - N/A   Overcast
6:55 AM 64.9 °F 61.7 °F 89% 29.62 in 10.0 mi Calm Calm - N/A   Overcast
7:15 AM 65.3 °F 61.7 °F 88% 29.62 in 10.0 mi North 3.5 mph - N/A   Light Drizzle
7:35 AM 65.3 °F 61.0 °F 86% 29.62 in 10.0 mi North 3.5 mph - N/A   Overcast
7:55 AM 65.5 °F 61.3 °F 86% 29.63 in 10.0 mi North 9.2 mph - N/A   Overcast
8:15 AM 65.7 °F 61.7 °F 87% 29.63 in 10.0 mi NNE 3.5 mph - N/A   Overcast
8:35 AM 65.5 °F 61.7 °F 88% 29.63 in 10.0 mi Calm Calm - N/A   Overcast
8:55 AM 65.8 °F 61.9 °F 87% 29.64 in 10.0 mi Calm Calm - N/A   Overcast
9:15 AM 66.2 °F 61.9 °F 86% 29.64 in 10.0 mi North 3.5 mph - N/A   Overcast
9:35 AM 65.8 °F 61.9 °F 87% 29.63 in 10.0 mi Calm Calm - N/A   Overcast
9:55 AM 65.8 °F 62.1 °F 88% 29.64 in 7.0 mi North 3.5 mph - N/A   Overcast
10:15 AM 66.2 °F 62.1 °F 86% 29.64 in 7.0 mi NNE 3.5 mph - N/A   Overcast
10:35 AM 66.6 °F 62.4 °F 86% 29.63 in 7.0 mi NE 5.8 mph - N/A   Overcast
10:55 AM 66.4 °F 62.1 °F 86% 29.64 in 7.0 mi NE 8.1 mph - N/A   Overcast
11:15 AM 64.9 °F 62.8 °F 93% 29.64 in 1.8 mi East 8.1 mph - 0.19 in Rain Heavy Rain
11:35 AM 64.4 °F 63.0 °F 95% 29.64 in 2.0 mi ENE 5.8 mph - 0.25 in Rain Heavy Rain
11:55 AM 64.0 °F 62.6 °F 95% 29.65 in 3.0 mi NE 3.5 mph - 0.29 in Rain Heavy Rain
12:15 PM 64.6 °F 63.0 °F 94% 29.64 in 4.0 mi ENE 3.5 mph - 0.01 in Rain Light Rain
12:35 PM 65.7 °F 63.5 °F 93% 29.64 in 5.0 mi Calm Calm - 0.01 in Rain , Thunderstorm Light Thunderstorms and Rain
12:55 PM 66.4 °F 63.9 °F 92% 29.65 in 7.0 mi ENE 6.9 mph - 0.02 in Rain Light Rain
1:15 PM 67.3 °F 64.0 °F 89% 29.65 in 10.0 mi NE 6.9 mph - N/A   Overcast
1:35 PM 67.6 °F 63.5 °F 87% 29.65 in 10.0 mi ENE 11.5 mph - N/A Thunderstorm Thunderstorm
1:55 PM 68.0 °F 63.3 °F 85% 29.66 in 10.0 mi NE 11.5 mph - N/A Thunderstorm Overcast
2:15 PM 67.5 °F 62.8 °F 85% 29.66 in 7.0 mi NE 10.4 mph - N/A   Overcast
2:35 PM 67.6 °F 62.6 °F 84% 29.67 in 7.0 mi NNE 12.7 mph - N/A Thunderstorm Overcast
2:55 PM 68.2 °F 62.2 °F 81% 29.67 in 10.0 mi NNE 15.0 mph - N/A   Overcast
3:15 PM 68.9 °F 62.1 °F 79% 29.68 in 10.0 mi NNE 15.0 mph 19.6 mph N/A   Overcast
3:35 PM 69.1 °F 62.2 °F 79% 29.68 in 10.0 mi NNE 16.1 mph - N/A   Mostly Cloudy
3:55 PM 68.9 °F 61.7 °F 78% 29.68 in 10.0 mi NE 12.7 mph - N/A   Mostly Cloudy
4:15 PM 69.3 °F 61.3 °F 76% 29.68 in 10.0 mi NE 11.5 mph 16.1 mph N/A   Overcast
4:35 PM 70.2 °F 60.3 °F 71% 29.68 in 10.0 mi NE 15.0 mph - N/A   Overcast
4:55 PM 70.7 °F 58.3 °F 65% 29.68 in 10.0 mi NNE 16.1 mph - N/A   Scattered Clouds
5:15 PM 70.9 °F 57.7 °F 63% 29.69 in 10.0 mi NNE 12.7 mph 19.6 mph N/A   Clear
5:35 PM 70.7 °F 56.7 °F 61% 29.69 in 10.0 mi NE 17.3 mph - N/A   Clear
5:55 PM 70.0 °F 55.6 °F 60% 29.69 in 10.0 mi NNE 15.0 mph 23.0 mph N/A   Clear
6:15 PM 69.1 °F 55.9 °F 63% 29.70 in 10.0 mi NNE 17.3 mph - N/A   Clear
6:35 PM 68.2 °F 56.5 °F 66% 29.71 in 10.0 mi NNE 19.6 mph 28.8 mph N/A   Mostly Cloudy
6:55 PM 67.5 °F 57.4 °F 70% 29.71 in 10.0 mi NE 16.1 mph 25.3 mph N/A   Overcast
7:15 PM 66.6 °F 56.5 °F 70% 29.72 in 10.0 mi NNE 16.1 mph 20.7 mph N/A   Overcast
7:35 PM 65.8 °F 54.5 °F 67% 29.73 in 10.0 mi NNE 17.3 mph - N/A   Overcast
7:55 PM 65.8 °F 53.4 °F 64% 29.73 in 10.0 mi NNE 17.3 mph 24.2 mph N/A   Overcast
8:15 PM 65.3 °F 52.9 °F 64% 29.73 in 10.0 mi NNE 13.8 mph 19.6 mph N/A   Overcast
8:35 PM 65.5 °F 52.0 °F 62% 29.74 in 10.0 mi NNE 15.0 mph 26.5 mph N/A   Overcast
8:55 PM 65.1 °F 52.7 °F 64% 29.74 in 10.0 mi NNE 10.4 mph 20.7 mph N/A   Overcast
9:15 PM 64.4 °F 53.4 °F 67% 29.75 in 10.0 mi NNE 15.0 mph 18.4 mph N/A   Overcast
9:35 PM 64.4 °F 54.5 °F 70% 29.75 in 10.0 mi NNE 15.0 mph 20.7 mph N/A   Overcast
9:55 PM 64.4 °F 54.9 °F 71% 29.76 in 10.0 mi NNE 12.7 mph - N/A   Overcast
10:15 PM 64.4 °F 55.2 °F 72% 29.76 in 10.0 mi NNE 15.0 mph 18.4 mph N/A   Overcast
10:35 PM 64.8 °F 54.9 °F 70% 29.76 in 10.0 mi NNE 13.8 mph - N/A   Overcast
10:55 PM 64.6 °F 55.4 °F 72% 29.76 in 10.0 mi NNE 13.8 mph - N/A   Overcast
11:15 PM 64.4 °F 55.6 °F 73% 29.76 in 10.0 mi NNE 10.4 mph - N/A   Overcast
11:35 PM 63.9 °F 55.8 °F 75% 29.76 in 10.0 mi NNE 11.5 mph - N/A   Overcast
11:55 PM 63.9 °F 55.9 °F 75% 29.76 in 10.0 mi NNE 9.2 mph - N/A   Overcast